Wind from 158

Air temperature 8.9° C
Dewpoint 2.7° C

Last reported at 2014-Apr-17 17:44 UTC.
Time now 2014-Apr-17 18:38 UTC

Location: N 59°07' E 009°39'.
View on Google Maps.

See reports from other nearby stations

Tides Stations Pressure Air Temp Water Temp Dewpoint Dewpoint depression Visibility Wind Speed Wind Dir Waves Ship positions

  
sailing weather and tide predictions

CW9944 Porsgrunn NO weather

date/time (UTC)wind fromknots sea level pressurealtimeterstation pressurevisibilityair tempwater tempwave heightnotes
2014-Apr-17 17:44 158 8.9
2014-Apr-17 17:34 135 8.9
2014-Apr-17 17:24 135 9.4
2014-Apr-17 17:14 248 9.4
2014-Apr-17 17:04 292 10.0
2014-Apr-17 16:54 338 10.0
2014-Apr-17 16:44 158 10.0
2014-Apr-17 16:34 158 10.0
2014-Apr-17 16:24 158 9.4
2014-Apr-17 16:14 090 9.4
2014-Apr-17 16:04 112 9.4
2014-Apr-17 15:54 158 9.4
2014-Apr-17 15:44 180 9.4
2014-Apr-17 15:34 225 9.4
2014-Apr-17 15:24 338 8.9
2014-Apr-17 15:14 020 0 gusting 0 8.9
2014-Apr-17 15:04 045 8.3
2014-Apr-17 14:54 7.8
2014-Apr-17 14:44 034 3 gusting 4 7.8
2014-Apr-17 14:34 021 0 gusting 5 7.8
2014-Apr-17 14:24 011 7.8
2014-Apr-17 14:14 7.8
2014-Apr-17 14:04 7.8
2014-Apr-17 13:54 315 7.8
2014-Apr-17 13:44 064 2 gusting 4 7.2
2014-Apr-17 13:34 309 7.2
2014-Apr-17 13:24 7.2
2014-Apr-17 13:14 252 7.2
2014-Apr-17 13:04 045 1 gusting 2 7.2
2014-Apr-17 12:54 022 1 gusting 4 6.7
2014-Apr-17 12:44 019 2 gusting 2 6.7
2014-Apr-17 12:34 090 1 gusting 4 6.7
2014-Apr-17 12:24 202 1 gusting 7 6.7
2014-Apr-17 12:14 282 2 gusting 5 6.7
2014-Apr-17 12:04 339 1 gusting 10 6.7
2014-Apr-17 11:54 022 4 gusting 6 7.2
2014-Apr-17 11:44 317 5 gusting 11 7.2
2014-Apr-17 11:34 292 1 gusting 8 7.2
2014-Apr-17 11:24 292 4 gusting 10 7.2
2014-Apr-17 11:14 022 6 gusting 7 7.2
2014-Apr-17 11:04 043 4 gusting 6 7.2
2014-Apr-17 10:54 338 4 gusting 5 7.2
2014-Apr-17 10:44 012 9 gusting 11 7.2
2014-Apr-17 10:34 342 6 gusting 7 6.7
2014-Apr-17 10:24 045 1 gusting 6 6.7
2014-Apr-17 10:14 326 0 gusting 7 6.7
2014-Apr-17 10:04 020 4 gusting 7 6.7
2014-Apr-17 09:54 6.7
2014-Apr-17 09:44 354 0 gusting 5 6.7
2014-Apr-17 09:34 338 2 gusting 6 6.7
2014-Apr-17 09:24 045 1 gusting 6 6.7
2014-Apr-17 09:14 020 0 gusting 6 6.7
2014-Apr-17 09:04 6.7
2014-Apr-15 20:34 022 5.0
2014-Apr-15 20:24 022 5.6
2014-Apr-15 20:14 045 5.6
2014-Apr-15 20:04 064 5.6
2014-Apr-15 19:54 338 6.1
2014-Apr-15 19:44 068 6.7
2014-Apr-15 19:34 328 6.7
2014-Apr-15 19:24 041 0 gusting 2 7.2
2014-Apr-15 19:14 158 7.8
2014-Apr-15 19:04 135 7.8
2014-Apr-15 18:54 270 8.3
2014-Apr-15 18:44 180 8.3
2014-Apr-15 18:34 158 8.9
2014-Apr-15 18:24 158 8.9
2014-Apr-15 18:14 225 0 gusting 0 9.4
2014-Apr-15 18:04 209 2 gusting 2 10.0